Tabellarische Ansicht des 13.5.2017


Die einzelnen Werte des Tages

Uhrzeit Temperatur Luftdruck Luftfeuchte Wind Hi-Wind Taupunkt THW Index Wind Chill Heat Index Solar- strahlung Regen

00:00

10.9 C

1002.8 hpa

91 %

3.2 km/h aus 117

6.4 km/h aus ENE

9.5 C

11.0 C

10.9 C

11.0 C

0 W/m

0.00 mm

00:05

10.9 C

1002.8 hpa

91 %

3.2 km/h aus 115

6.4 km/h aus NNE

9.5 C

11.1 C

10.9 C

11.1 C

0 W/m

0.00 mm

00:10

10.9 C

1002.8 hpa

92 %

1.6 km/h aus 114

6.4 km/h aus NNE

9.7 C

11.1 C

10.9 C

11.1 C

0 W/m

0.00 mm

00:15

10.9 C

1002.9 hpa

92 %

0.0 km/h aus 114

1.6 km/h aus NNE

9.7 C

11.1 C

10.9 C

11.1 C

0 W/m

0.00 mm

00:20

10.9 C

1002.9 hpa

92 %

0.0 km/h aus 116

0.0 km/h aus ---

9.7 C

11.1 C

10.9 C

11.1 C

0 W/m

0.00 mm

00:25

10.9 C

1002.9 hpa

92 %

0.0 km/h aus 117

0.0 km/h aus ---

9.6 C

11.1 C

10.9 C

11.1 C

0 W/m

0.00 mm

00:30

10.8 C

1003.2 hpa

92 %

0.0 km/h aus 117

0.0 km/h aus ---

9.6 C

11.0 C

10.8 C

11.0 C

0 W/m

0.00 mm

00:35

10.8 C

1003.2 hpa

92 %

0.0 km/h aus 116

0.0 km/h aus ---

9.5 C

10.9 C

10.8 C

10.9 C

0 W/m

0.00 mm

00:40

10.8 C

1003.2 hpa

91 %

0.0 km/h aus 114

0.0 km/h aus ---

9.4 C

10.9 C

10.8 C

10.9 C

0 W/m

0.00 mm

00:45

10.7 C

1003.2 hpa

91 %

0.0 km/h aus 115

0.0 km/h aus ---

9.3 C

10.8 C

10.7 C

10.8 C

0 W/m

0.00 mm

00:50

10.6 C

1003.2 hpa

91 %

0.0 km/h aus 117

0.0 km/h aus ---

9.1 C

10.7 C

10.6 C

10.7 C

0 W/m

0.00 mm

00:55

10.5 C

1003.2 hpa

91 %

0.0 km/h aus 116

0.0 km/h aus ---

9.1 C

10.7 C

10.5 C

10.7 C

0 W/m

0.00 mm

01:00

10.4 C

1003.3 hpa

91 %

0.0 km/h aus 116

0.0 km/h aus ---

9.0 C

10.6 C

10.4 C

10.6 C

0 W/m

0.00 mm

01:05

10.3 C

1003.3 hpa

91 %

0.0 km/h aus 115

0.0 km/h aus ---

8.9 C

10.5 C

10.3 C

10.5 C

0 W/m

0.00 mm

01:10

10.3 C

1003.3 hpa

91 %

0.0 km/h aus 115

0.0 km/h aus ---

8.9 C

10.5 C

10.3 C

10.5 C

0 W/m

0.00 mm

01:15

10.3 C

1003.4 hpa

92 %

0.0 km/h aus 116

0.0 km/h aus ---

9.0 C

10.4 C

10.3 C

10.4 C

0 W/m

0.00 mm

01:20

10.3 C

1003.4 hpa

92 %

0.0 km/h aus 116

0.0 km/h aus ---

9.0 C

10.4 C

10.3 C

10.4 C

0 W/m

0.00 mm

01:25

10.2 C

1003.4 hpa

92 %

1.6 km/h aus 117

4.8 km/h aus NNE

9.0 C

10.4 C

10.2 C

10.4 C

0 W/m

0.00 mm

01:30

10.2 C

1003.3 hpa

92 %

3.2 km/h aus 117

3.2 km/h aus NNE

8.9 C

10.3 C

10.2 C

10.3 C

0 W/m

0.00 mm

01:35

10.2 C

1003.3 hpa

92 %

0.0 km/h aus 115

1.6 km/h aus NNE

8.9 C

10.3 C

10.2 C

10.3 C

0 W/m

0.00 mm

01:40

10.1 C

1003.3 hpa

92 %

0.0 km/h aus 115

1.6 km/h aus NNE

8.9 C

10.3 C

10.1 C

10.3 C

0 W/m

0.00 mm

01:45

10.1 C

1003.4 hpa

92 %

0.0 km/h aus 117

0.0 km/h aus ---

8.8 C

10.3 C

10.1 C

10.3 C

0 W/m

0.00 mm

01:50

9.9 C

1003.4 hpa

91 %

0.0 km/h aus 116

3.2 km/h aus NNE

8.5 C

10.1 C

9.9 C

10.1 C

0 W/m

0.00 mm

01:55

9.9 C

1003.4 hpa

91 %

3.2 km/h aus 117

4.8 km/h aus NNE

8.5 C

10.1 C

9.9 C

10.1 C

0 W/m

0.00 mm

02:00

9.8 C

1003.4 hpa

91 %

3.2 km/h aus 117

3.2 km/h aus NNE

8.4 C

9.9 C

9.8 C

9.9 C

0 W/m

0.00 mm

02:05

9.7 C

1003.4 hpa

91 %

3.2 km/h aus 113

4.8 km/h aus NNE

8.3 C

9.9 C

9.7 C

9.9 C

0 W/m

0.00 mm

02:10

9.6 C

1003.4 hpa

91 %

1.6 km/h aus 114

3.2 km/h aus NNE

8.2 C

9.8 C

9.6 C

9.8 C

0 W/m

0.00 mm

02:15

9.5 C

1003.4 hpa

91 %

1.6 km/h aus 116

3.2 km/h aus NNE

8.1 C

9.7 C

9.5 C

9.7 C

0 W/m

0.00 mm

02:20

9.4 C

1003.4 hpa

91 %

1.6 km/h aus 116

3.2 km/h aus NNE

8.0 C

9.6 C

9.4 C

9.6 C

0 W/m

0.00 mm

02:25

9.4 C

1003.4 hpa

91 %

1.6 km/h aus 117

1.6 km/h aus NNE

8.0 C

9.6 C

9.4 C

9.6 C

0 W/m

0.00 mm

02:30

9.3 C

1003.4 hpa

91 %

0.0 km/h aus 117

1.6 km/h aus NNE

7.9 C

9.4 C

9.3 C

9.4 C

0 W/m

0.00 mm

02:35

9.3 C

1003.4 hpa

91 %

0.0 km/h aus 113

0.0 km/h aus ---

7.9 C

9.4 C

9.3 C

9.4 C

0 W/m

0.00 mm

02:40

9.2 C

1003.4 hpa

91 %

0.0 km/h aus 115

0.0 km/h aus ---

7.8 C

9.4 C

9.2 C

9.4 C

0 W/m

0.00 mm

02:45

9.2 C

1003.4 hpa

91 %

0.0 km/h aus 117

0.0 km/h aus ---

7.8 C

9.3 C

9.2 C

9.3 C

0 W/m

0.00 mm

02:50

9.1 C

1003.4 hpa

92 %

0.0 km/h aus 116

0.0 km/h aus ---

7.9 C

9.3 C

9.1 C

9.3 C

0 W/m

0.00 mm

02:55

9.1 C

1003.4 hpa

92 %

1.6 km/h aus 117

3.2 km/h aus NNE

7.9 C

9.3 C

9.1 C

9.3 C

0 W/m

0.00 mm

03:00

9.1 C

1003.4 hpa

92 %

0.0 km/h aus 117

1.6 km/h aus NNE

7.8 C

9.2 C

9.1 C

9.2 C

0 W/m

0.00 mm

03:05

9.0 C

1003.4 hpa

92 %

0.0 km/h aus 114

0.0 km/h aus ---

7.8 C

9.2 C

9.0 C

9.2 C

0 W/m

0.00 mm

03:10

9.0 C

1003.4 hpa

92 %

1.6 km/h aus 116

3.2 km/h aus NNE

7.8 C

9.2 C

9.0 C

9.2 C

0 W/m

0.00 mm

03:15

8.9 C

1003.4 hpa

92 %

0.0 km/h aus 117

3.2 km/h aus NNE

7.7 C

9.1 C

8.9 C

9.1 C

0 W/m

0.00 mm

03:20

8.9 C

1003.4 hpa

92 %

3.2 km/h aus 117

4.8 km/h aus NNE

7.7 C

9.1 C

8.9 C

9.1 C

0 W/m

0.00 mm

03:25

8.9 C

1003.4 hpa

92 %

1.6 km/h aus 116

3.2 km/h aus NNE

7.7 C

9.1 C

8.9 C

9.1 C

0 W/m

0.00 mm

03:30

8.8 C

1003.4 hpa

92 %

0.0 km/h aus 117

1.6 km/h aus NNE

7.6 C

9.0 C

8.8 C

9.0 C

0 W/m

0.00 mm

03:35

8.8 C

1003.4 hpa

92 %

0.0 km/h aus 114

1.6 km/h aus NNE

7.5 C

8.9 C

8.8 C

8.9 C

0 W/m

0.00 mm

03:40

8.7 C

1003.4 hpa

92 %

0.0 km/h aus 115

1.6 km/h aus NNE

7.5 C

8.9 C

8.7 C

8.9 C

0 W/m

0.00 mm

03:45

8.7 C

1003.5 hpa

92 %

0.0 km/h aus 117

1.6 km/h aus NNE

7.4 C

8.8 C

8.7 C

8.8 C

0 W/m

0.00 mm

03:50

8.7 C

1003.5 hpa

92 %

1.6 km/h aus 117

1.6 km/h aus NNE

7.4 C

8.8 C

8.7 C

8.8 C

0 W/m

0.00 mm

03:55

8.6 C

1003.5 hpa

92 %

0.0 km/h aus 116

1.6 km/h aus NNE

7.4 C

8.8 C

8.6 C

8.8 C

0 W/m

0.00 mm

04:00

8.6 C

1003.9 hpa

93 %

1.6 km/h aus 117

3.2 km/h aus NNE

7.5 C

8.8 C

8.6 C

8.8 C

0 W/m

0.00 mm

04:05

8.6 C

1003.9 hpa

93 %

0.0 km/h aus 114

0.0 km/h aus ---

7.5 C

8.7 C

8.6 C

8.7 C

0 W/m

0.00 mm

04:10

8.6 C

1003.9 hpa

93 %

0.0 km/h aus 115

0.0 km/h aus ---

7.5 C

8.7 C

8.6 C

8.7 C

0 W/m

0.00 mm

04:15

8.5 C

1003.9 hpa

93 %

3.2 km/h aus 115

6.4 km/h aus NE

7.4 C

8.7 C

8.5 C

8.7 C

0 W/m

0.00 mm

04:20

8.4 C

1003.9 hpa

92 %

3.2 km/h aus 117

4.8 km/h aus NE

7.2 C

8.6 C

8.4 C

8.6 C

0 W/m

0.00 mm

04:25

8.4 C

1003.9 hpa

92 %

3.2 km/h aus 116

4.8 km/h aus NE

7.2 C

8.5 C

8.4 C

8.5 C

0 W/m

0.00 mm

04:30

8.3 C

1003.9 hpa

92 %

3.2 km/h aus 117

4.8 km/h aus NE

7.1 C

8.4 C

8.3 C

8.4 C

0 W/m

0.00 mm

04:35

8.3 C

1003.9 hpa

93 %

1.6 km/h aus 113

4.8 km/h aus NE

7.2 C

8.4 C

8.3 C

8.4 C

0 W/m

0.00 mm

04:40

8.2 C

1003.9 hpa

93 %

1.6 km/h aus 115

1.6 km/h aus NE

7.2 C

8.4 C

8.2 C

8.4 C

0 W/m

0.00 mm

04:45

8.2 C

1004.0 hpa

93 %

3.2 km/h aus 116

4.8 km/h aus NE

7.2 C

8.4 C

8.2 C

8.4 C

0 W/m

0.00 mm

04:50

8.2 C

1004.0 hpa

93 %

3.2 km/h aus 117

4.8 km/h aus NE

7.2 C

8.4 C

8.2 C

8.4 C

0 W/m

0.00 mm

04:55

8.2 C

1004.0 hpa

93 %

1.6 km/h aus 116

3.2 km/h aus NE

7.2 C

8.4 C

8.2 C

8.4 C

0 W/m

0.00 mm

05:00

8.2 C

1004.0 hpa

93 %

1.6 km/h aus 117

3.2 km/h aus NE

7.2 C

8.4 C

8.2 C

8.4 C

0 W/m

0.00 mm

05:05

8.2 C

1004.0 hpa

93 %

3.2 km/h aus 113

4.8 km/h aus NE

7.2 C

8.4 C

8.2 C

8.4 C

0 W/m

0.00 mm

05:10

8.2 C

1004.0 hpa

93 %

3.2 km/h aus 115

4.8 km/h aus NE

7.1 C

8.3 C

8.2 C

8.3 C

0 W/m

0.00 mm

05:15

8.2 C

1004.0 hpa

93 %

1.6 km/h aus 114

3.2 km/h aus NE

7.2 C

8.4 C

8.2 C

8.4 C

0 W/m

0.00 mm

05:20

8.2 C

1004.0 hpa

93 %

3.2 km/h aus 116

4.8 km/h aus NE

7.2 C

8.4 C

8.2 C

8.4 C

0 W/m

0.00 mm

05:25

8.2 C

1004.0 hpa

93 %

1.6 km/h aus 117

3.2 km/h aus NE

7.1 C

8.3 C

8.2 C

8.3 C

0 W/m

0.00 mm

05:30

8.2 C

1004.2 hpa

93 %

1.6 km/h aus 116

3.2 km/h aus NE

7.2 C

8.4 C

8.2 C

8.4 C

3 W/m

0.00 mm

05:35

8.3 C

1004.2 hpa

94 %

3.2 km/h aus 115

3.2 km/h aus NE

7.4 C

8.4 C

8.3 C

8.4 C

7 W/m

0.00 mm

05:40

8.3 C

1004.2 hpa

94 %

1.6 km/h aus 113

3.2 km/h aus NE

7.4 C

8.5 C

8.3 C

8.5 C

7 W/m

0.00 mm

05:45

8.4 C

1004.1 hpa

94 %

1.6 km/h aus 117

3.2 km/h aus NE

7.5 C

8.6 C

8.4 C

8.6 C

9 W/m

0.00 mm

05:50

8.5 C

1004.1 hpa

94 %

0.0 km/h aus 117

3.2 km/h aus NE

7.6 C

8.7 C

8.5 C

8.7 C

11 W/m

0.00 mm

05:55

8.6 C

1004.1 hpa

94 %

1.6 km/h aus 117

3.2 km/h aus NE

7.6 C

8.7 C

8.6 C

8.7 C

13 W/m

0.00 mm

06:00

8.6 C

1004.2 hpa

94 %

1.6 km/h aus 117

3.2 km/h aus NE

7.7 C

8.8 C

8.6 C

8.8 C

16 W/m

0.00 mm

06:05

8.7 C

1004.2 hpa

94 %

1.6 km/h aus 114

3.2 km/h aus NE

7.8 C

8.9 C

8.7 C

8.9 C

18 W/m

0.00 mm

06:10

8.8 C

1004.2 hpa

94 %

3.2 km/h aus 115

4.8 km/h aus NE

7.9 C

8.9 C

8.8 C

8.9 C

20 W/m

0.00 mm

06:15

9.0 C

1004.4 hpa

95 %

3.2 km/h aus 116

4.8 km/h aus NE

8.2 C

9.2 C

9.0 C

9.2 C

21 W/m

0.00 mm

06:20

9.1 C

1004.4 hpa

95 %

3.2 km/h aus 116

3.2 km/h aus NE

8.3 C

9.3 C

9.1 C

9.3 C

21 W/m

0.00 mm

06:25

9.2 C

1004.4 hpa

95 %

3.2 km/h aus 117

4.8 km/h aus NE

8.4 C

9.4 C

9.2 C

9.4 C

22 W/m

0.00 mm

06:30

9.2 C

1004.3 hpa

95 %

3.2 km/h aus 117

4.8 km/h aus NE

8.5 C

9.5 C

9.2 C

9.5 C

21 W/m

0.00 mm

06:35

9.3 C

1004.3 hpa

95 %

4.8 km/h aus 114

6.4 km/h aus NE

8.5 C

9.3 C

9.0 C

9.6 C

22 W/m

0.00 mm

06:40

9.3 C

1004.3 hpa

95 %

3.2 km/h aus 115

4.8 km/h aus NE

8.6 C

9.6 C

9.3 C

9.6 C

23 W/m

0.00 mm

06:45

9.4 C

1004.5 hpa

95 %

0.0 km/h aus 117

3.2 km/h aus NE

8.6 C

9.7 C

9.4 C

9.7 C

23 W/m

0.00 mm

06:50

9.4 C

1004.5 hpa

95 %

0.0 km/h aus 117

1.6 km/h aus NE

8.7 C

9.7 C

9.4 C

9.7 C

28 W/m

0.00 mm

06:55

9.6 C

1004.5 hpa

95 %

0.0 km/h aus 117

1.6 km/h aus NE

8.8 C

9.8 C

9.6 C

9.8 C

33 W/m

0.00 mm

07:00

9.6 C

1004.9 hpa

95 %

1.6 km/h aus 115

3.2 km/h aus NE

8.8 C

9.9 C

9.6 C

9.9 C

39 W/m

0.00 mm

07:05

9.7 C

1004.9 hpa

95 %

3.2 km/h aus 114

4.8 km/h aus NE

9.0 C

10.0 C

9.7 C

10.0 C

38 W/m

0.00 mm

07:10

9.9 C

1004.9 hpa

96 %

3.2 km/h aus 117

6.4 km/h aus SSW

9.3 C

10.2 C

9.9 C

10.2 C

41 W/m

0.00 mm

07:15

10.1 C

1005.0 hpa

96 %

0.0 km/h aus 117

4.8 km/h aus SSW

9.4 C

10.3 C

10.1 C

10.3 C

48 W/m

0.00 mm

07:20

10.2 C

1005.0 hpa

96 %

0.0 km/h aus 116

1.6 km/h aus SSW

9.6 C

10.5 C

10.2 C

10.5 C

59 W/m

0.00 mm

07:25

10.4 C

1005.0 hpa

96 %

0.0 km/h aus 117

1.6 km/h aus SSW

9.8 C

10.7 C

10.4 C

10.7 C

74 W/m

0.00 mm

07:30

10.7 C

1005.2 hpa

96 %

0.0 km/h aus 115

1.6 km/h aus SSW

10.1 C

10.9 C

10.7 C

10.9 C

86 W/m

0.00 mm

07:35

10.8 C

1005.2 hpa

96 %

0.0 km/h aus 115

0.0 km/h aus ---

10.2 C

11.1 C

10.8 C

11.1 C

97 W/m

0.00 mm

07:40

10.9 C

1005.2 hpa

96 %

0.0 km/h aus 117

0.0 km/h aus ---

10.3 C

11.2 C

10.9 C

11.2 C

103 W/m

0.00 mm

07:45

11.2 C

1005.2 hpa

96 %

0.0 km/h aus 116

0.0 km/h aus ---

10.6 C

11.3 C

11.2 C

11.3 C

102 W/m

0.00 mm

07:50

11.4 C

1005.2 hpa

96 %

0.0 km/h aus 117

0.0 km/h aus ---

10.8 C

11.6 C

11.4 C

11.6 C

98 W/m

0.00 mm

07:55

11.6 C

1005.2 hpa

96 %

1.6 km/h aus 116

3.2 km/h aus SE

10.9 C

11.7 C

11.6 C

11.7 C

96 W/m

0.00 mm

08:00

11.7 C

1005.4 hpa

96 %

1.6 km/h aus 114

3.2 km/h aus SE

11.1 C

11.8 C

11.7 C

11.8 C

97 W/m

0.00 mm

08:05

11.8 C

1005.4 hpa

96 %

1.6 km/h aus 118

3.2 km/h aus SE

11.2 C

12.0 C

11.8 C

12.0 C

102 W/m

0.00 mm

08:10

11.9 C

1005.4 hpa

96 %

3.2 km/h aus 117

4.8 km/h aus SE

11.3 C

12.1 C

11.9 C

12.1 C

108 W/m

0.00 mm

08:15

12.1 C

1005.6 hpa

96 %

3.2 km/h aus 117

4.8 km/h aus SE

11.4 C

12.2 C

12.1 C

12.2 C

114 W/m

0.00 mm

08:20

12.2 C

1005.6 hpa

96 %

1.6 km/h aus 117

4.8 km/h aus SE

11.6 C

12.3 C

12.2 C

12.3 C

117 W/m

0.00 mm

08:25

12.4 C

1005.6 hpa

97 %

0.0 km/h aus 112

1.6 km/h aus SE

11.9 C

12.6 C

12.4 C

12.6 C

117 W/m

0.00 mm

08:30

12.6 C

1005.6 hpa

96 %

0.0 km/h aus 116

1.6 km/h aus SE

11.9 C

12.7 C

12.6 C

12.7 C

122 W/m

0.00 mm

08:35

12.7 C

1005.6 hpa

96 %

0.0 km/h aus 117

0.0 km/h aus ---

12.0 C

12.8 C

12.7 C

12.8 C

133 W/m

0.00 mm

08:40

12.8 C

1005.6 hpa

97 %

0.0 km/h aus 117

0.0 km/h aus ---

12.3 C

12.9 C

12.8 C

12.9 C

146 W/m

0.00 mm

08:45

12.9 C

1005.8 hpa

96 %

0.0 km/h aus 117

0.0 km/h aus ---

12.3 C

13.1 C

12.9 C

13.1 C

151 W/m

0.00 mm

08:50

13.3 C

1005.8 hpa

97 %

0.0 km/h aus 114

0.0 km/h aus ---

12.9 C

13.5 C

13.3 C

13.5 C

164 W/m

0.00 mm

08:55

13.7 C

1005.8 hpa

96 %

0.0 km/h aus 116

0.0 km/h aus ---

13.0 C

13.8 C

13.7 C

13.8 C

191 W/m

0.00 mm

09:00

13.7 C

1005.9 hpa

96 %

0.0 km/h aus 117

0.0 km/h aus ---

13.1 C

13.8 C

13.7 C

13.8 C

264 W/m

0.00 mm

09:05

13.9 C

1005.9 hpa

95 %

0.0 km/h aus 116

3.2 km/h aus SE

13.1 C

14.0 C

13.9 C

14.0 C

250 W/m

0.00 mm

09:10

14.2 C

1005.9 hpa

95 %

1.6 km/h aus 117

3.2 km/h aus SE

13.4 C

14.3 C

14.2 C

14.3 C

234 W/m

0.00 mm

09:15

14.3 C

1006.0 hpa

95 %

1.6 km/h aus 113

3.2 km/h aus SE

13.5 C

14.4 C

14.3 C

14.4 C

236 W/m

0.00 mm

09:20

14.4 C

1006.0 hpa

93 %

1.6 km/h aus 116

4.8 km/h aus SE

13.3 C

14.5 C

14.4 C

14.5 C

245 W/m

0.00 mm

09:25

14.6 C

1006.0 hpa

93 %

1.6 km/h aus 117

3.2 km/h aus SE

13.4 C

14.7 C

14.6 C

14.7 C

244 W/m

0.00 mm

09:30

14.7 C

1006.4 hpa

93 %

1.6 km/h aus 116

3.2 km/h aus SE

13.5 C

14.8 C

14.7 C

14.8 C

242 W/m

0.00 mm

09:35

14.9 C

1006.4 hpa

93 %

1.6 km/h aus 116

4.8 km/h aus SE

13.8 C

15.1 C

14.9 C

15.1 C

248 W/m

0.00 mm

09:40

15.2 C

1006.4 hpa

93 %

3.2 km/h aus 114

4.8 km/h aus SE

14.0 C

15.3 C

15.2 C

15.3 C

265 W/m

0.00 mm

09:45

15.2 C

1006.5 hpa

92 %

1.6 km/h aus 116

6.4 km/h aus SE

13.9 C

15.3 C

15.2 C

15.3 C

271 W/m

0.00 mm

09:50

15.2 C

1006.5 hpa

91 %

3.2 km/h aus 117

6.4 km/h aus SE

13.8 C

15.4 C

15.2 C

15.4 C

263 W/m

0.00 mm

09:55

15.3 C

1006.5 hpa

92 %

3.2 km/h aus 117

6.4 km/h aus SSE

14.0 C

15.5 C

15.3 C

15.5 C

247 W/m

0.00 mm

10:00

15.3 C

1006.6 hpa

90 %

3.2 km/h aus 116

6.4 km/h aus SSE

13.7 C

15.5 C

15.3 C

15.5 C

248 W/m

0.00 mm

10:05

15.5 C

1006.6 hpa

92 %

3.2 km/h aus 112

4.8 km/h aus SSE

14.2 C

15.7 C

15.5 C

15.7 C

253 W/m

0.00 mm

10:10

15.5 C

1006.6 hpa

90 %

3.2 km/h aus 116

6.4 km/h aus SSE

13.9 C

15.7 C

15.5 C

15.7 C

259 W/m

0.00 mm

10:15

15.7 C

1006.8 hpa

91 %

4.8 km/h aus 118

8.0 km/h aus SSE

14.2 C

15.8 C

15.7 C

15.8 C

263 W/m

0.00 mm

10:20

15.8 C

1006.8 hpa

91 %

3.2 km/h aus 117

6.4 km/h aus SSE

14.3 C

16.0 C

15.8 C

16.0 C

287 W/m

0.00 mm

10:25

15.8 C

1006.8 hpa

90 %

6.4 km/h aus 116

8.0 km/h aus SSE

14.2 C

16.1 C

15.8 C

16.1 C

336 W/m

0.00 mm

10:30

15.9 C

1007.0 hpa

88 %

6.4 km/h aus 114

11.3 km/h aus S

14.0 C

16.1 C

15.9 C

16.1 C

365 W/m

0.00 mm

10:35

16.0 C

1007.0 hpa

87 %

8.0 km/h aus 117

11.3 km/h aus S

13.8 C

16.2 C

16.0 C

16.2 C

381 W/m

0.00 mm

10:40

16.4 C

1007.0 hpa

87 %

8.0 km/h aus 117

12.9 km/h aus S

14.3 C

16.6 C

16.4 C

16.6 C

732 W/m

0.00 mm

10:45

17.5 C

1007.0 hpa

88 %

6.4 km/h aus 117

11.3 km/h aus SSE

15.5 C

17.9 C

17.5 C

17.9 C

884 W/m

0.00 mm

10:50

17.7 C

1007.0 hpa

85 %

8.0 km/h aus 115

12.9 km/h aus SSE

15.1 C

18.0 C

17.7 C

18.0 C

624 W/m

0.00 mm

10:55

17.7 C

1007.0 hpa

80 %

6.4 km/h aus 115

9.7 km/h aus S

14.2 C

17.9 C

17.7 C

17.9 C

706 W/m

0.00 mm

11:00

17.4 C

1007.1 hpa

81 %

6.4 km/h aus 117

9.7 km/h aus S

14.1 C

17.7 C

17.4 C

17.7 C

455 W/m

0.00 mm

11:05

17.4 C

1007.1 hpa

82 %

6.4 km/h aus 116

11.3 km/h aus S

14.3 C

17.6 C

17.4 C

17.6 C

361 W/m

0.00 mm

11:10

17.4 C

1007.1 hpa

85 %

6.4 km/h aus 117

11.3 km/h aus S

14.9 C

17.7 C

17.4 C

17.7 C

420 W/m

0.00 mm

11:15

17.8 C

1007.4 hpa

81 %

6.4 km/h aus 114

9.7 km/h aus S

14.5 C

18.1 C

17.8 C

18.1 C

625 W/m

0.00 mm

11:20

18.2 C

1007.4 hpa

81 %

6.4 km/h aus 116

11.3 km/h aus S

14.9 C

18.6 C

18.2 C

18.6 C

588 W/m

0.00 mm

11:25

17.9 C

1007.4 hpa

83 %

8.0 km/h aus 117

11.3 km/h aus SSW

15.0 C

18.3 C

17.9 C

18.3 C

431 W/m

0.00 mm

11:30

17.7 C

1007.5 hpa

77 %

8.0 km/h aus 117

12.9 km/h aus SSW

13.6 C

17.8 C

17.7 C

17.8 C

424 W/m

0.00 mm

11:35

17.7 C

1007.5 hpa

80 %

8.0 km/h aus 117

14.5 km/h aus S

14.2 C

17.9 C

17.7 C

17.9 C

425 W/m

0.00 mm

11:40

17.8 C

1007.5 hpa

80 %

6.4 km/h aus 114

11.3 km/h aus S

14.3 C

18.1 C

17.8 C

18.1 C

386 W/m

0.00 mm

11:45

17.9 C

1007.6 hpa

79 %

8.0 km/h aus 116

14.5 km/h aus S

14.2 C

18.2 C

17.9 C

18.2 C

372 W/m

0.25 mm

11:50

18.0 C

1007.6 hpa

79 %

8.0 km/h aus 116

12.9 km/h aus SSW

14.3 C

18.3 C

18.0 C

18.3 C

425 W/m

0.00 mm

11:55

18.1 C

1007.6 hpa

75 %

6.4 km/h aus 117

11.3 km/h aus SW

13.6 C

18.2 C

18.1 C

18.2 C

532 W/m

0.00 mm

12:00

18.3 C

1007.6 hpa

75 %

8.0 km/h aus 115

16.1 km/h aus WSW

13.8 C

18.5 C

18.3 C

18.5 C

497 W/m

0.00 mm

12:05

18.6 C

1007.6 hpa

76 %

8.0 km/h aus 115

14.5 km/h aus S

14.3 C

18.9 C

18.6 C

18.9 C

518 W/m

0.00 mm

12:10

18.5 C

1007.6 hpa

76 %

8.0 km/h aus 117

16.1 km/h aus S

14.2 C

18.7 C

18.5 C

18.7 C

522 W/m

0.00 mm

12:15

18.8 C

1007.6 hpa

75 %

9.7 km/h aus 117

16.1 km/h aus SSW

14.3 C

19.1 C

18.8 C

19.1 C

653 W/m

0.00 mm

12:20

19.9 C

1007.6 hpa

74 %

6.4 km/h aus 117

17.7 km/h aus WSW

15.2 C

20.4 C

19.9 C

20.4 C

1137 W/m

0.00 mm

12:25

20.2 C

1007.6 hpa

72 %

8.0 km/h aus 116

16.1 km/h aus SSW

15.0 C

20.6 C

20.2 C

20.6 C

1199 W/m

0.00 mm

12:30

20.1 C

1007.6 hpa

70 %

8.0 km/h aus 115

16.1 km/h aus S

14.4 C

20.4 C

20.1 C

20.4 C

441 W/m

0.00 mm

12:35

19.4 C

1007.6 hpa

71 %

6.4 km/h aus 117

16.1 km/h aus SW

14.0 C

19.7 C

19.4 C

19.7 C

358 W/m

0.00 mm

12:40

19.1 C

1007.6 hpa

71 %

8.0 km/h aus 117

12.9 km/h aus SW

13.7 C

19.2 C

19.1 C

19.2 C

350 W/m

0.00 mm

12:45

18.8 C

1007.6 hpa

73 %

8.0 km/h aus 116

16.1 km/h aus SW

13.9 C

19.1 C

18.8 C

19.1 C

331 W/m

0.00 mm

12:50

18.8 C

1007.6 hpa

72 %

6.4 km/h aus 114

14.5 km/h aus SSW

13.7 C

19.0 C

18.8 C

19.0 C

326 W/m

0.00 mm

12:55

18.8 C

1007.6 hpa

72 %

6.4 km/h aus 116

12.9 km/h aus SW

13.7 C

19.0 C

18.8 C

19.0 C

397 W/m

0.00 mm

13:00

19.7 C

1007.5 hpa

72 %

8.0 km/h aus 116

16.1 km/h aus SSW

14.5 C

20.0 C

19.7 C

20.0 C

705 W/m

0.00 mm

13:05

20.6 C

1007.5 hpa

74 %

6.4 km/h aus 117

12.9 km/h aus S

15.8 C

21.1 C

20.6 C

21.1 C

715 W/m

0.00 mm

13:10

20.3 C

1007.5 hpa

69 %

4.8 km/h aus 114

11.3 km/h aus SSW

14.4 C

20.5 C

20.3 C

20.5 C

738 W/m

0.00 mm

13:15

20.7 C

1007.5 hpa

66 %

4.8 km/h aus 115

9.7 km/h aus WSW

14.1 C

20.7 C

20.7 C

20.7 C

1003 W/m

0.00 mm

13:20

20.9 C

1007.5 hpa

67 %

4.8 km/h aus 117

11.3 km/h aus SSE

14.6 C

20.9 C

20.9 C

20.9 C

912 W/m

0.00 mm

13:25

20.9 C

1007.5 hpa

69 %

3.2 km/h aus 117

9.7 km/h aus S

15.0 C

21.0 C

20.9 C

21.0 C

879 W/m

0.00 mm

13:30

21.1 C

1007.1 hpa

67 %

6.4 km/h aus 115

11.3 km/h aus WNW

14.7 C

21.0 C

21.1 C

21.0 C

887 W/m

0.00 mm

13:35

21.1 C

1007.1 hpa

70 %

4.8 km/h aus 114

9.7 km/h aus SSW

15.4 C

21.2 C

21.1 C

21.2 C

888 W/m

0.00 mm

13:40

21.4 C

1007.1 hpa

68 %

6.4 km/h aus 117

11.3 km/h aus S

15.2 C

21.4 C

21.4 C

21.4 C

896 W/m

0.00 mm

13:45

21.7 C

1007.1 hpa

67 %

6.4 km/h aus 117

12.9 km/h aus SSE

15.3 C

21.7 C

21.7 C

21.7 C

867 W/m

0.00 mm

13:50

21.6 C

1007.1 hpa

68 %

6.4 km/h aus 117

11.3 km/h aus S

15.4 C

21.6 C

21.6 C

21.6 C

909 W/m

0.00 mm

13:55

21.8 C

1007.1 hpa

65 %

8.0 km/h aus 115

16.1 km/h aus S

14.9 C

21.8 C

21.8 C

21.8 C

934 W/m

0.00 mm

14:00

21.9 C

1007.1 hpa

64 %

6.4 km/h aus 113

11.3 km/h aus SE

14.8 C

21.9 C

21.9 C

21.9 C

946 W/m

0.00 mm

14:05

22.1 C

1007.1 hpa

65 %

8.0 km/h aus 117

17.7 km/h aus ESE

15.2 C

22.2 C

22.1 C

22.2 C

992 W/m

0.00 mm

14:10

22.2 C

1007.1 hpa

61 %

9.7 km/h aus 116

16.1 km/h aus S

14.3 C

22.1 C

22.2 C

22.1 C

1046 W/m

0.00 mm

14:15

21.6 C

1007.3 hpa

61 %

4.8 km/h aus 116

12.9 km/h aus SW

13.8 C

21.4 C

21.6 C

21.4 C

630 W/m

0.00 mm

14:20

22.1 C

1007.3 hpa

62 %

6.4 km/h aus 115

11.3 km/h aus W

14.4 C

22.0 C

22.1 C

22.0 C

1027 W/m

0.00 mm

14:25

22.2 C

1007.3 hpa

58 %

4.8 km/h aus 117

9.7 km/h aus SW

13.6 C

22.1 C

22.2 C

22.1 C

981 W/m

0.00 mm

14:30

22.3 C

1007.1 hpa

59 %

8.0 km/h aus 118

16.1 km/h aus SSW

13.9 C

22.3 C

22.3 C

22.3 C

784 W/m

0.00 mm

14:35

22.0 C

1007.1 hpa

57 %

8.0 km/h aus 117

19.3 km/h aus SSE

13.1 C

21.7 C

22.0 C

21.7 C

546 W/m

0.00 mm

14:40

21.1 C

1007.1 hpa

58 %

9.7 km/h aus 114

14.5 km/h aus S

12.5 C

20.5 C

21.1 C

20.5 C

184 W/m

0.00 mm

14:45

20.8 C

1007.4 hpa

60 %

8.0 km/h aus 115

17.7 km/h aus SW

12.8 C

20.4 C

20.8 C

20.4 C

281 W/m

0.00 mm

14:50

21.1 C

1007.4 hpa

58 %

11.3 km/h aus 116

17.7 km/h aus SW

12.5 C

20.5 C

21.1 C

20.5 C

494 W/m

0.00 mm

14:55

21.5 C

1007.4 hpa

59 %

8.0 km/h aus 117

16.1 km/h aus SSW

13.1 C

21.1 C

21.5 C

21.1 C

675 W/m

0.00 mm

15:00

21.7 C

1007.5 hpa

57 %

9.7 km/h aus 116

17.7 km/h aus SW

12.8 C

21.2 C

21.7 C

21.2 C

402 W/m

0.00 mm

15:05

21.3 C

1007.5 hpa

59 %

9.7 km/h aus 115

19.3 km/h aus S

13.0 C

20.9 C

21.3 C

20.9 C

296 W/m

0.00 mm

15:10

21.1 C

1007.5 hpa

60 %

11.3 km/h aus 117

19.3 km/h aus SW

13.0 C

20.6 C

21.1 C

20.6 C

252 W/m

0.00 mm

15:15

20.9 C

1007.6 hpa

60 %

8.0 km/h aus 117

16.1 km/h aus WSW

12.8 C

20.5 C

20.9 C

20.5 C

247 W/m

0.00 mm

15:20

20.9 C

1007.6 hpa

65 %

6.4 km/h aus 117

16.1 km/h aus SSW

14.1 C

20.8 C

20.9 C

20.8 C

295 W/m

0.00 mm

15:25

20.6 C

1007.6 hpa

68 %

17.7 km/h aus 113

25.7 km/h aus SSW

14.4 C

19.2 C

19.1 C

20.7 C

565 W/m

0.00 mm

15:30

21.8 C

1007.6 hpa

65 %

17.7 km/h aus 116

24.1 km/h aus S

14.9 C

20.3 C

20.3 C

21.8 C

949 W/m

0.00 mm

15:35

21.9 C

1007.6 hpa

57 %

14.5 km/h aus 118

24.1 km/h aus SSE

13.0 C

20.8 C

21.1 C

21.6 C

862 W/m

0.00 mm

15:40

21.9 C

1007.6 hpa

59 %

12.9 km/h aus 117

22.5 km/h aus S

13.6 C

21.4 C

21.7 C

21.7 C

793 W/m

0.00 mm

15:45

22.1 C

1007.6 hpa

57 %

14.5 km/h aus 116

22.5 km/h aus SSE

13.1 C

21.0 C

21.3 C

21.8 C

768 W/m

0.00 mm

15:50

22.1 C

1007.6 hpa

63 %

14.5 km/h aus 115

20.9 km/h aus S

14.7 C

21.4 C

21.3 C

22.2 C

744 W/m

0.00 mm

15:55

22.4 C

1007.6 hpa

63 %

12.9 km/h aus 117

22.5 km/h aus SSE

15.0 C

22.3 C

22.1 C

22.6 C

765 W/m

0.00 mm

16:00

22.4 C

1007.6 hpa

60 %

8.0 km/h aus 117

19.3 km/h aus SSE

14.3 C

22.5 C

22.4 C

22.5 C

795 W/m

0.00 mm

16:05

22.3 C

1007.6 hpa

63 %

8.0 km/h aus 117

14.5 km/h aus S

14.9 C

22.4 C

22.3 C

22.4 C

710 W/m

0.00 mm

16:10

22.4 C

1007.6 hpa

59 %

4.8 km/h aus 114

9.7 km/h aus SSW

14.0 C

22.4 C

22.4 C

22.4 C

706 W/m

0.00 mm

16:15

22.7 C

1007.4 hpa

55 %

6.4 km/h aus 116

17.7 km/h aus WSW

13.2 C

22.7 C

22.7 C

22.7 C

689 W/m

0.00 mm

16:20

22.3 C

1007.4 hpa

55 %

8.0 km/h aus 116

16.1 km/h aus SSW

12.8 C

22.0 C

22.3 C

22.0 C

661 W/m

0.00 mm

16:25

22.3 C

1007.4 hpa

55 %

4.8 km/h aus 117

11.3 km/h aus SW

12.8 C

22.0 C

22.3 C

22.0 C

676 W/m

0.00 mm

16:30

22.6 C

1007.4 hpa

54 %

8.0 km/h aus 116

20.9 km/h aus SW

12.8 C

22.4 C

22.6 C

22.4 C

674 W/m

0.00 mm

16:35

22.6 C

1007.4 hpa

54 %

8.0 km/h aus 114

16.1 km/h aus W

12.8 C

22.4 C

22.6 C

22.4 C

597 W/m

0.00 mm

16:40

22.6 C

1007.4 hpa

53 %

8.0 km/h aus 117

16.1 km/h aus WNW

12.5 C

22.3 C

22.6 C

22.3 C

612 W/m

0.00 mm

16:45

22.6 C

1007.5 hpa

55 %

8.0 km/h aus 115

14.5 km/h aus WSW

13.1 C

22.5 C

22.6 C

22.5 C

585 W/m

0.00 mm

16:50

22.9 C

1007.5 hpa

55 %

8.0 km/h aus 116

16.1 km/h aus W

13.4 C

23.0 C

22.9 C

23.0 C

572 W/m

0.00 mm

16:55

22.6 C

1007.5 hpa

52 %

9.7 km/h aus 114

17.7 km/h aus W

12.2 C

22.3 C

22.6 C

22.3 C

547 W/m

0.00 mm

17:00

22.6 C

1007.6 hpa

51 %

8.0 km/h aus 117

16.1 km/h aus W

12.0 C

22.3 C

22.6 C

22.3 C

543 W/m

0.00 mm

17:05

22.7 C

1007.6 hpa

52 %

6.4 km/h aus 116

16.1 km/h aus S

12.4 C

22.6 C

22.7 C

22.6 C

554 W/m

0.00 mm

17:10

22.4 C

1007.6 hpa

54 %

9.7 km/h aus 117

20.9 km/h aus SSW

12.7 C

22.2 C

22.4 C

22.2 C

524 W/m

0.00 mm

17:15

22.4 C

1007.5 hpa

54 %

9.7 km/h aus 115

19.3 km/h aus WNW

12.7 C

22.2 C

22.4 C

22.2 C

493 W/m

0.00 mm

17:20

22.3 C

1007.5 hpa

53 %

8.0 km/h aus 115

20.9 km/h aus SW

12.2 C

21.9 C

22.3 C

21.9 C

496 W/m

0.00 mm

17:25

22.3 C

1007.5 hpa

57 %

4.8 km/h aus 117

9.7 km/h aus NW

13.3 C

22.1 C

22.3 C

22.1 C

336 W/m

0.00 mm

17:30

21.9 C

1007.6 hpa

59 %

4.8 km/h aus 115

11.3 km/h aus W

13.5 C

21.7 C

21.9 C

21.7 C

271 W/m

0.00 mm

17:35

22.1 C

1007.6 hpa

58 %

4.8 km/h aus 117

9.7 km/h aus W

13.5 C

21.9 C

22.1 C

21.9 C

443 W/m

0.00 mm

17:40

21.9 C

1007.6 hpa

58 %

4.8 km/h aus 115

9.7 km/h aus NNW

13.3 C

21.7 C

21.9 C

21.7 C

406 W/m

0.00 mm

17:45

22.2 C

1007.7 hpa

56 %

3.2 km/h aus 117

6.4 km/h aus NNW

13.0 C

21.9 C

22.2 C

21.9 C

444 W/m

0.00 mm

17:50

22.1 C

1007.7 hpa

56 %

6.4 km/h aus 116

11.3 km/h aus W

12.9 C

21.8 C

22.1 C

21.8 C

384 W/m

0.00 mm

17:55

22.2 C

1007.7 hpa

57 %

3.2 km/h aus 116

6.4 km/h aus WNW

13.3 C

22.1 C

22.2 C

22.1 C

359 W/m

0.00 mm

18:00

22.2 C

1007.8 hpa

56 %

4.8 km/h aus 115

8.0 km/h aus W

13.0 C

22.0 C

22.2 C

22.0 C

368 W/m

0.00 mm

18:05

22.2 C

1007.8 hpa

53 %

8.0 km/h aus 115

11.3 km/h aus W

12.1 C

21.8 C

22.2 C

21.8 C

358 W/m

0.00 mm

18:10

22.1 C

1007.8 hpa

55 %

4.8 km/h aus 117

12.9 km/h aus SSW

12.6 C

21.8 C

22.1 C

21.8 C

358 W/m

0.00 mm

18:15

21.8 C

1008.0 hpa

54 %

4.8 km/h aus 117

16.1 km/h aus SSW

12.1 C

21.3 C

21.8 C

21.3 C

363 W/m

0.00 mm

18:20

21.9 C

1008.0 hpa

56 %

1.6 km/h aus 116

8.0 km/h aus W

12.8 C

21.6 C

21.9 C

21.6 C

334 W/m

0.00 mm

18:25

21.8 C

1008.0 hpa

57 %

3.2 km/h aus 115

6.4 km/h aus W

12.9 C

21.4 C

21.8 C

21.4 C

228 W/m

0.00 mm

18:30

21.7 C

1008.1 hpa

55 %

4.8 km/h aus 117

8.0 km/h aus WNW

12.3 C

21.2 C

21.7 C

21.2 C

235 W/m

0.00 mm

18:35

21.6 C

1008.1 hpa

58 %

1.6 km/h aus 117

6.4 km/h aus W

12.9 C

21.1 C

21.6 C

21.1 C

190 W/m

0.00 mm

18:40

21.7 C

1008.1 hpa

56 %

4.8 km/h aus 117

8.0 km/h aus WNW

12.5 C

21.2 C

21.7 C

21.2 C

219 W/m

0.00 mm

18:45

21.7 C

1008.1 hpa

55 %

4.8 km/h aus 115

8.0 km/h aus NW

12.3 C

21.2 C

21.7 C

21.2 C

275 W/m

0.00 mm

18:50

21.8 C

1008.1 hpa

57 %

4.8 km/h aus 115

6.4 km/h aus W

12.9 C

21.4 C

21.8 C

21.4 C

202 W/m

0.00 mm

18:55

21.8 C

1008.1 hpa

55 %

1.6 km/h aus 117

4.8 km/h aus W

12.3 C

21.3 C

21.8 C

21.3 C

94 W/m

0.00 mm

19:00

21.8 C

1008.1 hpa

56 %

1.6 km/h aus 117

3.2 km/h aus W

12.7 C

21.4 C

21.8 C

21.4 C

96 W/m

0.00 mm

19:05

21.9 C

1008.1 hpa

56 %

4.8 km/h aus 116

11.3 km/h aus W

12.7 C

21.5 C

21.9 C

21.5 C

99 W/m

0.00 mm

19:10

21.9 C

1008.1 hpa

57 %

3.2 km/h aus 115

8.0 km/h aus W

13.0 C

21.6 C

21.9 C

21.6 C

103 W/m

0.00 mm

19:15

21.8 C

1008.2 hpa

57 %

1.6 km/h aus 117

3.2 km/h aus W

12.9 C

21.4 C

21.8 C

21.4 C

102 W/m

0.00 mm

19:20

21.8 C

1008.2 hpa

57 %

0.0 km/h aus 116

0.0 km/h aus ---

12.9 C

21.4 C

21.8 C

21.4 C

99 W/m

0.00 mm

19:25

21.8 C

1008.2 hpa

56 %

1.6 km/h aus 117

6.4 km/h aus SSW

12.7 C

21.4 C

21.8 C

21.4 C

99 W/m

0.00 mm

19:30

21.8 C

1008.2 hpa

54 %

3.2 km/h aus 113

8.0 km/h aus SSW

12.1 C

21.2 C

21.8 C

21.2 C

96 W/m

0.00 mm

19:35

21.7 C

1008.2 hpa

53 %

4.8 km/h aus 116

9.7 km/h aus SSW

11.7 C

21.0 C

21.7 C

21.0 C

72 W/m

0.00 mm

19:40

21.6 C

1008.2 hpa

53 %

4.8 km/h aus 117

11.3 km/h aus SSW

11.6 C

20.9 C

21.6 C

20.9 C

52 W/m

0.00 mm

19:45

21.4 C

1008.2 hpa

53 %

4.8 km/h aus 117

11.3 km/h aus SW

11.5 C

20.7 C

21.4 C

20.7 C

42 W/m

0.00 mm

19:50

21.3 C

1008.2 hpa

54 %

4.8 km/h aus 116

8.0 km/h aus SW

11.6 C

20.6 C

21.3 C

20.6 C

41 W/m

0.00 mm

19:55

21.2 C

1008.2 hpa

54 %

3.2 km/h aus 112

8.0 km/h aus SW

11.5 C

20.5 C

21.2 C

20.5 C

39 W/m

0.00 mm

20:00

21.2 C

1008.5 hpa

54 %

3.2 km/h aus 117

8.0 km/h aus SW

11.5 C

20.4 C

21.2 C

20.4 C

35 W/m

0.00 mm

20:05

21.1 C

1008.5 hpa

55 %

4.8 km/h aus 117

8.0 km/h aus SW

11.7 C

20.3 C

21.1 C

20.3 C

32 W/m

0.00 mm

20:10

20.9 C

1008.5 hpa

56 %

4.8 km/h aus 116

8.0 km/h aus WSW

11.8 C

20.3 C

20.9 C

20.3 C

30 W/m

0.00 mm

20:15

20.8 C

1008.7 hpa

55 %

3.2 km/h aus 115

6.4 km/h aus WSW

11.4 C

20.2 C

20.8 C

20.2 C

30 W/m

0.00 mm

20:20

20.7 C

1008.7 hpa

56 %

3.2 km/h aus 115

8.0 km/h aus WSW

11.6 C

20.1 C

20.7 C

20.1 C

29 W/m

0.00 mm

20:25

20.5 C

1008.7 hpa

57 %

3.2 km/h aus 117

8.0 km/h aus WSW

11.7 C

20.1 C

20.5 C

20.1 C

25 W/m

0.00 mm

20:30

20.3 C

1009.0 hpa

57 %

1.6 km/h aus 117

3.2 km/h aus WSW

11.5 C

19.9 C

20.3 C

19.9 C

19 W/m

0.00 mm

20:35

20.2 C

1009.0 hpa

59 %

1.6 km/h aus 117

6.4 km/h aus WSW

11.9 C

19.9 C

20.2 C

19.9 C

15 W/m

0.00 mm

20:40

20.1 C

1009.0 hpa

60 %

1.6 km/h aus 114

4.8 km/h aus WSW

12.0 C

19.9 C

20.1 C

19.9 C

15 W/m

0.00 mm

20:45

19.9 C

1009.1 hpa

61 %

3.2 km/h aus 116

4.8 km/h aus WSW

12.1 C

19.8 C

19.9 C

19.8 C

13 W/m

0.00 mm

20:50

19.6 C

1009.1 hpa

61 %

1.6 km/h aus 117

3.2 km/h aus WSW

11.9 C

19.4 C

19.6 C

19.4 C

9 W/m

0.00 mm

20:55

19.3 C

1009.1 hpa

62 %

1.6 km/h aus 117

3.2 km/h aus WSW

11.9 C

19.2 C

19.3 C

19.2 C

6 W/m

0.00 mm

21:00

19.1 C

1009.3 hpa

63 %

3.2 km/h aus 115

4.8 km/h aus WSW

11.9 C

18.9 C

19.1 C

18.9 C

3 W/m

0.00 mm

21:05

18.9 C

1009.3 hpa

64 %

1.6 km/h aus 114

6.4 km/h aus WSW

11.9 C

18.7 C

18.9 C

18.7 C

0 W/m

0.00 mm

21:10

18.7 C

1009.3 hpa

64 %

3.2 km/h aus 117

8.0 km/h aus W

11.8 C

18.6 C

18.7 C

18.6 C

0 W/m

0.00 mm

21:15

18.5 C

1009.7 hpa

65 %

8.0 km/h aus 117

14.5 km/h aus WNW

11.8 C

18.3 C

18.5 C

18.3 C

0 W/m

0.00 mm

21:20

18.3 C

1009.7 hpa

66 %

4.8 km/h aus 117

8.0 km/h aus WNW

11.9 C

18.2 C

18.3 C

18.2 C

0 W/m

0.00 mm

21:25

18.3 C

1009.7 hpa

66 %

3.2 km/h aus 115

8.0 km/h aus W

11.8 C

18.1 C

18.3 C

18.1 C

0 W/m

0.00 mm

21:30

18.2 C

1010.0 hpa

67 %

4.8 km/h aus 113

6.4 km/h aus W

11.9 C

18.1 C

18.2 C

18.1 C

0 W/m

0.00 mm

21:35

18.1 C

1010.0 hpa

67 %

3.2 km/h aus 117

8.0 km/h aus NW

11.9 C

17.9 C

18.1 C

17.9 C

0 W/m

0.00 mm

21:40

18.0 C

1010.0 hpa

67 %

3.2 km/h aus 117

8.0 km/h aus NW

11.8 C

17.8 C

18.0 C

17.8 C

0 W/m

0.00 mm

21:45

17.9 C

1010.2 hpa

68 %

3.2 km/h aus 117

6.4 km/h aus WNW

12.0 C

17.8 C

17.9 C

17.8 C

0 W/m

0.00 mm

21:50

17.8 C

1010.2 hpa

69 %

3.2 km/h aus 114

6.4 km/h aus NW

12.1 C

17.7 C

17.8 C

17.7 C

0 W/m

0.00 mm

21:55

17.7 C

1010.2 hpa

69 %

1.6 km/h aus 115

6.4 km/h aus NNW

12.0 C

17.6 C

17.7 C

17.6 C

0 W/m

0.00 mm

22:00

17.7 C

1010.2 hpa

69 %

3.2 km/h aus 116

6.4 km/h aus NNW

11.9 C

17.5 C

17.7 C

17.5 C

0 W/m

0.00 mm

22:05

17.6 C

1010.2 hpa

70 %

4.8 km/h aus 117

8.0 km/h aus N

12.0 C

17.4 C

17.6 C

17.4 C

0 W/m

0.00 mm

22:10

17.4 C

1010.2 hpa

71 %

6.4 km/h aus 117

12.9 km/h aus NW

12.1 C

17.3 C

17.4 C

17.3 C

0 W/m

0.00 mm

22:15

17.3 C

1010.7 hpa

74 %

4.8 km/h aus 114

11.3 km/h aus NW

12.7 C

17.3 C

17.3 C

17.3 C

0 W/m

0.00 mm

22:20

17.3 C

1010.7 hpa

76 %

3.2 km/h aus 116

8.0 km/h aus WNW

13.0 C

17.3 C

17.3 C

17.3 C

0 W/m

0.25 mm

22:25

17.2 C

1010.7 hpa

78 %

3.2 km/h aus 116

6.4 km/h aus WNW

13.4 C

17.3 C

17.2 C

17.3 C

0 W/m

0.25 mm

22:30

17.2 C

1010.7 hpa

77 %

0.0 km/h aus 117

3.2 km/h aus WNW

13.1 C

17.2 C

17.2 C

17.2 C

0 W/m

0.25 mm

22:35

17.1 C

1010.7 hpa

78 %

1.6 km/h aus 114

4.8 km/h aus WNW

13.2 C

17.2 C

17.1 C

17.2 C

0 W/m

0.00 mm

22:40

17.0 C

1010.7 hpa

80 %

1.6 km/h aus 113

6.4 km/h aus WNW

13.5 C

17.2 C

17.0 C

17.2 C

0 W/m

0.00 mm

22:45

16.8 C

1010.8 hpa

81 %

3.2 km/h aus 117

4.8 km/h aus WNW

13.6 C

17.0 C

16.8 C

17.0 C

0 W/m

0.00 mm

22:50

16.7 C

1010.8 hpa

80 %

1.6 km/h aus 117

3.2 km/h aus WNW

13.3 C

16.8 C

16.7 C

16.8 C

0 W/m

0.00 mm

22:55

16.6 C

1010.8 hpa

80 %

0.0 km/h aus 117

0.0 km/h aus ---

13.1 C

16.7 C

16.6 C

16.7 C

0 W/m

0.00 mm

23:00

16.4 C

1011.0 hpa

81 %

0.0 km/h aus 116

0.0 km/h aus ---

13.1 C

16.4 C

16.4 C

16.4 C

0 W/m

0.00 mm

23:05

16.2 C

1011.0 hpa

80 %

0.0 km/h aus 114

0.0 km/h aus ---

12.8 C

16.2 C

16.2 C

16.2 C

0 W/m

0.00 mm

23:10

16.0 C

1011.0 hpa

80 %

0.0 km/h aus 117

0.0 km/h aus ---

12.5 C

16.0 C

16.0 C

16.0 C

0 W/m

0.00 mm

23:15

15.8 C

1011.2 hpa

80 %

0.0 km/h aus 117

1.6 km/h aus WNW

12.4 C

15.8 C

15.8 C

15.8 C

0 W/m

0.00 mm

23:20

15.7 C

1011.2 hpa

81 %

1.6 km/h aus 117

4.8 km/h aus WNW

12.4 C

15.7 C

15.7 C

15.7 C

0 W/m

0.00 mm

23:25

15.4 C

1011.2 hpa

81 %

1.6 km/h aus 116

3.2 km/h aus WNW

12.1 C

15.3 C

15.4 C

15.3 C

0 W/m

0.00 mm

23:30

15.2 C

1011.4 hpa

81 %

0.0 km/h aus 114

0.0 km/h aus ---

11.9 C

15.1 C

15.2 C

15.1 C

0 W/m

0.00 mm

23:35

15.0 C

1011.4 hpa

82 %

0.0 km/h aus 117

4.8 km/h aus WNW

12.0 C

14.9 C

15.0 C

14.9 C

0 W/m

0.00 mm

23:40

14.9 C

1011.4 hpa

84 %

4.8 km/h aus 117

9.7 km/h aus WNW

12.3 C

14.9 C

14.9 C

14.9 C

0 W/m

0.00 mm

23:45

14.9 C

1011.7 hpa

86 %

6.4 km/h aus 116

9.7 km/h aus WNW

12.6 C

14.9 C

14.9 C

14.9 C

0 W/m

0.00 mm

23:50

14.8 C

1011.7 hpa

86 %

4.8 km/h aus 116

6.4 km/h aus WNW

12.5 C

14.8 C

14.8 C

14.8 C

0 W/m

0.00 mm

23:55

14.8 C

1011.7 hpa

87 %

4.8 km/h aus 114

6.4 km/h aus W

12.6 C

14.8 C

14.8 C

14.8 C

0 W/m

0.00 mm